Olympia, Washington, United States (98501)
Lat: 47.04N, Lon: 122.9W
Wx Zone: WAZ504
Local Info
Past Weather Observations for Today

NOTE: This archive is for the closest National Weather Service station to Olympia. Information may differ from the station used for current weather conditions.

Click here for Long-term Archive

Time Weather Temperature Dewpoint Humidity Pressure Winds Precip Visibility
17:54
Partly Cloudy
63°F / 17°C 50°F / 10°C 64% 29.89 in
(1012 mb)
SSW 10.4 mph
(SSW 17 kph)
0.00 in
(0.00 mm)
10SM
16:54
Partly Cloudy
Light Rain
64°F / 18°C 55°F / 13°C 73% 29.86 in
(1011 mb)
SSW 10.4 mph
(SSW 17 kph)
0.00 in
(0.00 mm)
10SM
15:54
Mostly Cloudy
64°F / 18°C 55°F / 13°C 73% 29.89 in
(1012 mb)
SW 11.5 mph
(SW 19 kph)
- 10SM
14:54
Overcast
64°F / 18°C 54°F / 12°C 68% 29.89 in
(1012 mb)
SSW 12.7 mph
(SSW 20 kph)
- 10SM
13:54
Overcast
68°F / 20°C 52°F / 11°C 56% 29.89 in
(1012 mb)
SW 12.7 mph
(SW 20 kph)
0.00 in
(0.00 mm)
10SM
12:54
Overcast
68°F / 20°C 50°F / 10°C 53% 29.92 in
(1013 mb)
SW 12.7 mph
(SW 20 kph)
- 10SM
11:54
Mostly Cloudy
70°F / 21°C 48°F / 9°C 46% 29.92 in
(1013 mb)
W 12.7 mph
(W 20 kph)
- 10SM
10:54
Partly Cloudy
70°F / 21°C 50°F / 10°C 50% 29.92 in
(1013 mb)
Variable 4.6 mph
(Variable 7 kph)
- 10SM
10:17
Partly Cloudy
64°F / 18°C 54°F / 12°C 68% 29.92 in
(1013 mb)
SSE 9.2 mph
(SSE 15 kph)
- 10SM
09:54
Mostly Cloudy
63°F / 17°C 54°F / 12°C 73% 29.95 in
(1014 mb)
S 8.1 mph
(S 13 kph)
- 10SM
09:05
Overcast
61°F / 16°C 54°F / 12°C 77% 29.95 in
(1014 mb)
S 8.1 mph
(S 13 kph)
- 10SM
08:54
Overcast
61°F / 16°C 54°F / 12°C 77% 29.95 in
(1014 mb)
S 10.4 mph
(S 17 kph)
- 10SM
07:54
Overcast
57°F / 14°C 55°F / 13°C 94% 29.95 in
(1014 mb)
SSE 4.6 mph
(SSE 7 kph)
- 10SM
07:14
Overcast
57°F / 14°C 55°F / 13°C 94% 29.95 in
(1014 mb)
SSE 4.6 mph
(SSE 7 kph)
- 10SM
06:56
Overcast
57°F / 14°C 55°F / 13°C 94% 29.95 in
(1014 mb)
S 6.9 mph
(S 11 kph)
- 10SM
06:54
Overcast
57°F / 14°C 55°F / 13°C 94% 29.95 in
(1014 mb)
S 5.8 mph
(S 9 kph)
- 8SM
05:54
Overcast
55°F / 13°C 54°F / 12°C 94% 29.98 in
(1015 mb)
Calm - 8SM
04:54
Overcast
55°F / 13°C 55°F / 13°C 100% 29.95 in
(1014 mb)
SSE 3.5 mph
(SSE 6 kph)
- 8SM
04:47
Overcast
55°F / 13°C 55°F / 13°C 100% 29.98 in
(1015 mb)
Calm - 8SM
04:29
Overcast
55°F / 13°C 55°F / 13°C 100% 29.98 in
(1015 mb)
Calm - 9SM
04:16
Overcast
55°F / 13°C 55°F / 13°C 100% 29.98 in
(1015 mb)
Calm - 9SM
03:54
Overcast
55°F / 13°C 55°F / 13°C 100% 29.98 in
(1015 mb)
Calm - 8SM
02:54
Overcast
55°F / 13°C 54°F / 12°C 94% 29.98 in
(1015 mb)
SE 3.5 mph
(SE 6 kph)
- 10SM
02:17
Overcast
54°F / 12°C 54°F / 12°C 100% 29.98 in
(1015 mb)
Calm - 9SM
01:54
Overcast
54°F / 12°C 52°F / 11°C 94% 29.98 in
(1015 mb)
Calm - 10SM
01:42
Mostly Cloudy
Fog And Mist
50°F / 10°C 50°F / 10°C 100% 29.98 in
(1015 mb)
Calm - 3SM
01:39
Mostly Cloudy
Fog And Mist
52°F / 11°C 52°F / 11°C 100% 29.98 in
(1015 mb)
Calm - 2 1/2SM
01:28
Partly Cloudy
Fog And Mist
54°F / 12°C 52°F / 11°C 94% 29.98 in
(1015 mb)
Calm - 2 1/2SM
01:19
Partly Cloudy
Fog And Mist
52°F / 11°C 52°F / 11°C 100% 29.98 in
(1015 mb)
Calm - 1 1/4SM
01:17
Partly Cloudy
Fog And Mist
52°F / 11°C 52°F / 11°C 100% 29.98 in
(1015 mb)
Calm - 2SM
00:54
Clear
54°F / 12°C 54°F / 12°C 100% 29.98 in
(1015 mb)
Calm - 10SM
Time Weather Temperature Dewpoint Humidity Pressure Winds Precip Visibility


Weather for websites

WeatherForYou.com, LLC is not responsible for any damages or problems caused by this service. Current weather conditions are obtained from the closest station including government and personal stations which may have varying degrees of accuracy. Weather forecasts are derived from the NOAA NDFD. Like all things, this site belongs to Jesus Christ... He just trusts me to maintain it. If you have any questions or comments email webmaster@weatherforyou.com

Copyright © 2014, WeatherForYou.com LLC. All rights reserved.